W2GUX Weather Reports


Display with metric or nautical units.
time (UTC)temp
F
wind
direction
speed
MPH
gust
MPH
rain 1hr
in
rain 24hr
in
rain mn
in
humidity
%
barometer
mb
20260506113003 67 177 6.0 16.0 0.00 0.00 0.00 66 1006.0
20260506112504 67 183 7.0 18.0 0.00 0.00 0.00 67 1006.1
20260506112003 67 185 5.0 18.0 0.00 0.00 0.00 67 1006.1
20260506111503 67 188 4.0 9.0 0.00 0.00 0.00 68 1006.0
20260506111003 66 186 5.0 16.0 0.00 0.00 0.00 68 1006.0
20260506110503 66 179 5.0 16.0 0.00 0.00 0.00 69 1006.0
20260506110004 66 176 4.0 8.0 0.00 0.00 0.00 69 1005.8
20260506105503 66 177 4.0 10.0 0.00 0.00 0.00 69 1005.7
20260506105003 66 181 4.0 10.0 0.00 0.00 0.00 70 1005.8
20260506104504 66 189 4.0 8.0 0.00 0.00 0.00 70 1006.0
20260506104004 65 182 4.0 12.0 0.00 0.00 0.00 70 1006.0
20260506103503 65 174 4.0 12.0 0.00 0.00 0.00 71 1005.9
20260506103003 65 181 3.0 10.0 0.00 0.00 0.00 71 1005.9
20260506102503 65 185 3.0 10.0 0.00 0.00 0.00 72 1005.8
20260506102003 65 185 3.0 10.0 0.00 0.00 0.00 72 1005.9
20260506101504 64 184 3.0 7.0 0.00 0.00 0.00 72 1005.9
20260506101004 64 190 3.0 10.0 0.00 0.00 0.00 73 1005.8
20260506100503 64 189 2.0 10.0 0.00 0.00 0.00 73 1005.7
20260506100004 64 173 2.0 6.0 0.00 0.00 0.00 73 1005.7
20260506095503 64 168 2.0 6.0 0.00 0.00 0.00 73 1005.7
20260506095003 64 178 2.0 6.0 0.00 0.00 0.00 73 1005.6
20260506094503 64 187 1.0 5.0 0.00 0.00 0.00 73 1005.7
20260506094004 64 188 1.0 7.0 0.00 0.00 0.00 73 1005.7
20260506093504 64 187 1.0 7.0 0.00 0.00 0.00 73 1005.7
20260506093004 64 191 2.0 8.0 0.00 0.00 0.00 72 1005.6
20260506092503 64 190 2.0 8.0 0.00 0.00 0.00 72 1005.6
20260506092003 64 178 2.0 7.0 0.00 0.00 0.00 72 1005.7
20260506091503 64 172 1.0 4.0 0.00 0.00 0.00 72 1005.8
20260506091004 65 163 1.0 8.0 0.00 0.00 0.00 71 1005.8
20260506090504 65 176 2.0 8.0 0.00 0.00 0.00 71 1005.9
20260506090003 65 188 3.0 7.0 0.00 0.00 0.00 71 1005.9
20260506085503 65 183 3.0 12.0 0.00 0.00 0.00 70 1005.9
20260506085003 65 181 2.0 12.0 0.00 0.00 0.00 70 1006.0
20260506084504 65 181 2.0 8.0 0.00 0.00 0.00 70 1006.0
20260506084003 65 185 1.0 7.0 0.00 0.00 0.00 70 1006.0
20260506083503 65 193 1.0 6.0 0.00 0.00 0.00 70 1006.0
20260506083003 65 176 1.0 6.0 0.00 0.00 0.00 69 1006.0
20260506082503 66 175 1.0 6.0 0.00 0.00 0.00 69 1006.0
20260506082004 66 172 0.0 5.0 0.00 0.00 0.00 68 1006.0
20260506081503 66 174 1.0 8.0 0.00 0.00 0.00 68 1006.0
20260506081003 66 172 1.0 8.0 0.00 0.00 0.00 68 1006.0
20260506080503 66 167 1.0 5.0 0.00 0.00 0.00 67 1006.0
20260506073504 67 185 2.0 8.0 0.00 0.00 0.00 65 1006.0
20260506073004 67 187 2.0 9.0 0.00 0.00 0.00 65 1006.0
20260506072503 67 187 2.0 9.0 0.00 0.00 0.00 64 1006.0
20260506072003 67 187 2.0 7.0 0.00 0.00 0.00 64 1006.0
20260506071503 67 174 2.0 7.0 0.00 0.00 0.00 64 1006.0
20260506071004 67 174 2.0 7.0 0.00 0.00 0.00 63 1006.0
20260506070504 67 192 1.0 6.0 0.00 0.00 0.00 63 1006.0
20260506062503 68 167 2.0 6.0 0.00 0.00 0.00 60 1006.2
20260506062004 68 185 2.0 7.0 0.00 0.00 0.00 60 1006.1
20260506061504 68 184 3.0 8.0 0.00 0.00 0.00 59 1006.1
20260506061003 68 177 3.0 14.0 0.00 0.00 0.00 59 1006.0
20260506060503 68 173 3.0 14.0 0.00 0.00 0.00 59 1006.0
20260506051003 69 184 3.0 7.0 0.00 0.00 0.00 55 1006.7
20260506050503 69 189 2.0 8.0 0.00 0.00 0.00 55 1006.7
20260506045003 70 181 3.0 11.0 0.00 0.00 0.00 54 1006.6
20260506044504 70 191 2.0 8.0 0.00 0.00 0.00 53 1006.6
20260506044004 70 205 3.0 8.0 0.00 0.00 0.00 53 1006.7
20260506043503 70 199 3.0 8.0 0.00 0.00 0.00 53 1006.7
20260506043003 70 186 3.0 11.0 0.00 0.00 0.00 53 1006.6
20260506042503 70 182 3.0 11.0 0.00 0.00 0.00 52 1006.6
20260506042004 70 179 3.0 10.0 0.00 0.00 0.00 52 1006.6
20260506041504 70 175 2.0 10.0 0.00 0.00 0.00 52 1006.5
20260506041004 70 178 2.0 7.0 0.00 0.00 0.00 52 1006.6
20260506040503 70 177 2.0 8.0 0.00 0.00 0.00 52 1006.5
20260506040004 70 182 2.0 8.0 0.00 0.00 0.00 52 1006.5
20260506035504 70 195 2.0 6.0 0.00 0.00 0.00 52 1006.4
20260506035004 70 197 3.0 11.0 0.00 0.00 0.00 51 1006.5
20260506034503 70 195 3.0 12.0 0.00 0.00 0.00 51 1006.5
20260506034003 71 191 4.0 12.0 0.00 0.00 0.00 51 1006.6
20260506033503 71 193 4.0 12.0 0.00 0.00 0.00 50 1006.5
20260506033004 71 190 4.0 12.0 0.00 0.00 0.00 50 1006.5
20260506032503 71 184 4.0 13.0 0.00 0.00 0.00 50 1006.5
20260506032003 71 179 3.0 13.0 0.00 0.00 0.00 50 1006.5
20260506031503 71 182 3.0 11.0 0.00 0.00 0.00 50 1006.5
20260506031003 71 181 4.0 13.0 0.00 0.00 0.00 49 1006.5
20260506030504 72 176 5.0 13.0 0.00 0.00 0.00 49 1006.5
20260506030003 72 184 5.0 12.0 0.00 0.00 0.00 49 1006.4
20260506025503 72 188 6.0 13.0 0.00 0.00 0.00 48 1006.4
20260506025003 72 183 6.0 18.0 0.00 0.00 0.00 47 1006.3
20260506024504 73 186 5.0 18.0 0.00 0.00 0.00 47 1006.3
20260506024003 73 192 4.0 12.0 0.00 0.00 0.00 45 1006.4
20260506023504 73 189 4.0 16.0 0.00 0.00 0.00 44 1006.3
20260506023003 74 189 4.0 16.0 0.00 0.00 0.00 43 1006.4
20260506022504 74 198 3.0 13.0 0.00 0.00 0.00 42 1006.3
20260506022003 74 194 4.0 13.0 0.00 0.00 0.00 41 1006.3
20260506021504 74 187 4.0 12.0 0.00 0.00 0.00 40 1006.2
20260506021003 75 189 3.0 10.0 0.00 0.00 0.00 39 1006.2
20260506020503 75 193 4.0 13.0 0.00 0.00 0.00 38 1006.1
20260506020004 75 184 6.0 13.0 0.00 0.00 0.00 38 1006.1
20260506015503 75 182 5.0 18.0 0.00 0.00 0.00 37 1006.1
20260506015003 75 189 4.0 18.0 0.00 0.00 0.00 36 1006.1
20260506014503 76 187 5.0 12.0 0.00 0.00 0.00 36 1006.1
20260506014003 76 184 5.0 14.0 0.00 0.00 0.00 35 1005.9
20260506013503 76 182 3.0 14.0 0.00 0.00 0.00 35 1005.7
20260506013004 76 173 3.0 11.0 0.00 0.00 0.00 35 1005.7
20260506012503 76 179 4.0 12.0 0.00 0.00 0.00 34 1005.6
20260506012004 76 191 5.0 12.0 0.00 0.00 0.00 34 1005.6
20260506011503 77 193 6.0 14.0 0.00 0.00 0.00 33 1005.6
20260506011004 77 187 5.0 14.0 0.00 0.00 0.00 33 1005.5
20260506010503 77 182 3.0 14.0 0.00 0.00 0.00 33 1005.5
20260506010004 77 184 4.0 11.0 0.00 0.00 0.00 32 1005.4
20260506005503 77 186 5.0 12.0 0.00 0.00 0.00 31 1005.4
20260506005003 77 182 4.0 12.0 0.00 0.00 0.00 31 1005.4
20260506004504 78 185 3.0 12.0 0.00 0.00 0.00 30 1005.3
20260506004003 78 193 5.0 11.0 0.00 0.00 0.00 29 1005.2
20260506003504 78 189 5.0 12.0 0.00 0.00 0.00 29 1005.1
20260506003003 78 187 4.0 13.0 0.00 0.00 0.00 28 1005.0
20260506002503 78 187 5.0 13.0 0.00 0.00 0.00 27 1005.0
20260506002003 78 189 5.0 13.0 0.00 0.00 0.00 27 1004.9
20260506001503 78 187 4.0 13.0 0.00 0.00 0.00 27 1004.9
20260506001004 79 188 5.0 14.0 0.00 0.00 0.00 27 1004.9
20260506000503 79 186 6.0 14.0 0.00 0.00 0.00 27 1004.8
20260506000004 79 183 5.0 13.0 0.00 0.00 0.00 27 1004.7
20260505235503 79 197 4.0 14.0 0.00 0.00 0.00 26 1004.8
20260505235004 79 201 4.0 14.0 0.00 0.00 0.00 26 1004.8
20260505234503 79 196 4.0 13.0 0.00 0.00 0.00 26 1004.7
20260505234004 79 193 4.0 13.0 0.00 0.00 0.00 25 1004.6
20260505233503 79 183 4.0 17.0 0.00 0.00 0.00 25 1004.6
20260505233003 80 179 5.0 17.0 0.00 0.00 0.00 25 1004.5
20260505232503 80 185 4.0 11.0 0.00 0.00 0.00 25 1004.5
20260505232003 80 194 6.0 16.0 0.00 0.00 0.00 24 1004.5
20260505231504 80 191 6.0 16.0 0.00 0.00 0.00 24 1004.4
20260505231003 80 206 5.0 16.0 0.00 0.00 0.00 24 1004.4
20260505230504 80 204 6.0 19.0 0.00 0.00 0.00 24 1004.2
20260505230003 80 183 8.0 19.0 0.00 0.00 0.00 23 1004.3
20260505225504 81 176 7.0 17.0 0.00 0.00 0.00 23 1004.2
20260505225004 81 181 5.0 12.0 0.00 0.00 0.00 23 1004.1
20260505224503 81 192 5.0 16.0 0.00 0.00 0.00 22 1004.0
20260505224003 82 201 6.0 19.0 0.00 0.00 0.00 22 1004.0
20260505223503 82 192 6.0 19.0 0.00 0.00 0.00 22 1003.9
20260505223003 82 192 6.0 19.0 0.00 0.00 0.00 23 1004.0
20260505222504 82 209 5.0 19.0 0.00 0.00 0.00 22 1004.0
20260505222004 82 207 4.0 11.0 0.00 0.00 0.00 23 1004.0
20260505221503 82 188 5.0 11.0 0.00 0.00 0.00 22 1003.8
20260505221003 82 184 6.0 17.0 0.00 0.00 0.00 22 1003.8
20260505220503 82 191 6.0 17.0 0.00 0.00 0.00 22 1003.9
20260505220004 82 201 4.0 16.0 0.00 0.00 0.00 23 1003.7
20260505215504 82 210 4.0 16.0 0.00 0.00 0.00 23 1003.8
20260505215003 82 203 5.0 20.0 0.00 0.00 0.00 23 1003.7
20260505214503 82 198 6.0 20.0 0.00 0.00 0.00 22 1003.7
20260505214003 82 198 7.0 18.0 0.00 0.00 0.00 22 1003.6
20260505213503 82 192 9.0 22.0 0.00 0.00 0.00 22 1003.5
20260505213004 82 193 7.0 22.0 0.00 0.00 0.00 22 1003.5
20260505212503 83 187 7.0 20.0 0.00 0.00 0.00 23 1003.4
20260505212003 83 182 8.0 18.0 0.00 0.00 0.00 23 1003.4
20260505211503 83 189 9.0 25.0 0.00 0.00 0.00 22 1003.5
20260505211003 83 201 7.0 25.0 0.00 0.00 0.00 22 1003.5
20260505210503 84 196 8.0 20.0 0.00 0.00 0.00 22 1003.4
20260505210004 84 181 10.0 25.0 0.00 0.00 0.00 22 1003.5
20260505205503 84 178 6.0 25.0 0.00 0.00 0.00 22 1003.4
20260505205003 84 189 5.0 22.0 0.00 0.00 0.00 22 1003.4
20260505204503 84 188 8.0 22.0 0.00 0.00 0.00 22 1003.5
20260505204003 84 189 9.0 17.0 0.00 0.00 0.00 23 1003.4
20260505203503 84 188 10.0 19.0 0.00 0.00 0.00 22 1003.5
20260505203003 84 187 10.0 20.0 0.00 0.00 0.00 22 1003.5
20260505202503 84 186 10.0 20.0 0.00 0.00 0.00 22 1003.5
20260505202003 84 188 8.0 20.0 0.00 0.00 0.00 23 1003.6
20260505201503 84 185 10.0 25.0 0.00 0.00 0.00 23 1003.7
20260505201004 84 184 11.0 25.0 0.00 0.00 0.00 22 1003.6
20260505200503 84 190 7.0 25.0 0.00 0.00 0.00 21 1003.7
20260505200003 84 194 8.0 22.0 0.00 0.00 0.00 22 1003.7
20260505195503 84 197 7.0 22.0 0.00 0.00 0.00 23 1003.6
20260505195004 84 192 8.0 19.0 0.00 0.00 0.00 23 1003.8
20260505194503 84 188 10.0 22.0 0.00 0.00 0.00 24 1003.8
20260505194003 84 189 11.0 22.0 0.00 0.00 0.00 23 1004.0
20260505193503 84 190 10.0 22.0 0.00 0.00 0.00 22 1004.0
20260505193003 85 194 8.0 18.0 0.00 0.00 0.00 23 1004.0
20260505192504 84 191 9.0 21.0 0.00 0.00 0.00 24 1004.0
20260505192004 84 192 9.0 21.0 0.00 0.00 0.00 24 1004.2
20260505191503 85 198 8.0 17.0 0.00 0.00 0.00 22 1004.2
20260505191003 84 195 9.0 19.0 0.00 0.00 0.00 23 1004.3
20260505190503 84 189 12.0 24.0 0.00 0.00 0.00 22 1004.5
20260505190004 84 189 9.0 24.0 0.00 0.00 0.00 23 1004.4
20260505185504 85 191 9.0 25.0 0.00 0.00 0.00 24 1004.4
20260505185003 84 189 12.0 28.0 0.00 0.00 0.00 22 1004.6
20260505184503 84 189 10.0 28.0 0.00 0.00 0.00 23 1004.8
20260505184004 85 198 9.0 28.0 0.00 0.00 0.00 24 1004.9
20260505183503 85 204 8.0 21.0 0.00 0.00 0.00 25 1005.0
20260505183004 84 199 7.0 20.0 0.00 0.00 0.00 25 1004.8
20260505182503 84 187 7.0 18.0 0.00 0.00 0.00 26 1004.9
20260505182003 84 184 9.0 19.0 0.00 0.00 0.00 27 1004.8
20260505181503 84 182 8.0 21.0 0.00 0.00 0.00 26 1004.9
20260505181004 85 186 5.0 21.0 0.00 0.00 0.00 26 1005.0
20260505180504 85 219 6.0 16.0 0.00 0.00 0.00 26 1005.1
20260505180003 85 214 5.0 12.0 0.00 0.00 0.00 27 1005.1
20260505175503 84 205 4.0 17.0 0.00 0.00 0.00 28 1005.1
20260505175003 84 201 6.0 20.0 0.00 0.00 0.00 27 1005.1
20260505174503 83 188 7.0 20.0 0.00 0.00 0.00 28 1005.2
20260505174003 83 186 8.0 20.0 0.00 0.00 0.00 28 1005.3
20260505173503 83 186 8.0 20.0 0.00 0.00 0.00 27 1005.5
20260505173004 83 187 6.0 14.0 0.00 0.00 0.00 28 1005.6
20260505172504 83 186 7.0 17.0 0.00 0.00 0.00 29 1005.6
20260505172003 83 181 6.0 19.0 0.00 0.00 0.00 30 1005.6
20260505171503 83 191 5.0 19.0 0.00 0.00 0.00 30 1005.6
20260505171004 82 204 5.0 13.0 0.00 0.00 0.00 31 1005.7
20260505170504 82 204 5.0 13.0 0.00 0.00 0.00 33 1005.7
20260505170003 81 183 7.0 22.0 0.00 0.00 0.00 33 1006.0
20260505165503 81 186 6.0 22.0 0.00 0.00 0.00 32 1006.0
20260505165003 82 188 6.0 20.0 0.00 0.00 0.00 32 1006.1
20260505164504 81 187 6.0 20.0 0.00 0.00 0.00 33 1006.1
20260505164004 81 196 5.0 16.0 0.00 0.00 0.00 32 1006.1
20260505163503 81 184 5.0 13.0 0.00 0.00 0.00 32 1006.2
20260505163003 81 203 4.0 13.0 0.00 0.00 0.00 32 1006.3
20260505162503 81 230 4.0 11.0 0.00 0.00 0.00 33 1006.3
20260505162004 81 216 5.0 12.0 0.00 0.00 0.00 33 1006.5
20260505161503 80 214 5.0 14.0 0.00 0.00 0.00 34 1006.5
20260505161003 80 196 3.0 14.0 0.00 0.00 0.00 35 1006.6
20260505160503 80 198 3.0 10.0 0.00 0.00 0.00 36 1006.6
20260505153003 78 186 5.0 13.0 0.00 0.00 0.00 39 1007.2
20260505152503 77 181 5.0 13.0 0.00 0.00 0.00 39 1007.2
20260505152004 77 191 4.0 12.0 0.00 0.00 0.00 38 1007.2
20260505151504 78 249 4.0 10.0 0.00 0.00 0.00 37 1007.2
20260505151003 77 270 3.0 10.0 0.00 0.00 0.00 39 1007.2
20260505150503 77 258 3.0 10.0 0.00 0.00 0.00 39 1007.3
20260505140504 72 193 3.0 7.0 0.00 0.00 0.00 46 1007.8
20260505125003 65 175 2.0 8.0 0.00 0.00 0.00 62 1007.5
20260505124503 64 189 2.0 6.0 0.00 0.00 0.00 64 1007.6
20260505124003 63 192 2.0 6.0 0.00 0.00 0.00 65 1007.6
20260505123503 63 185 2.0 9.0 0.00 0.00 0.00 68 1007.6
20260505123003 62 170 3.0 9.0 0.00 0.00 0.00 69 1007.7
20260505122504 61 141 1.0 6.0 0.00 0.00 0.00 72 1007.7
20260505122003 60 149 1.0 3.0 0.00 0.00 0.00 74 1007.7
20260505121504 60 176 1.0 3.0 0.00 0.00 0.00 75 1007.9
20260505121004 59 177 0.0 3.0 0.00 0.00 0.00 77 1008.1
20260505120503 59 177 1.0 3.0 0.00 0.00 0.00 78 1008.1
20260505120004 58 177 1.0 3.0 0.00 0.00 0.00 80 1008.1
20260505115504 58 177 0.0 3.0 0.00 0.00 0.00 81 1008.1
20260505115004 57 177 0.0 2.0 0.00 0.00 0.00 81 1007.9
20260505114503 57 177 0.0 2.0 0.00 0.00 0.00 82 1007.8
20260505114003 57 177 0.0 2.0 0.00 0.00 0.00 84 1008.1
20260505113503 57 0 0.0 0.0 0.00 0.00 0.00 84 1007.9